Wind_Speed
67 68 65 64 64 63 61 60 59 57 56 55 53 51 49 47 46 45 42 38 37 36 35 34 34 29 28 28 28 27 23 18 20 25 27 22 20 19 19 18 19 19 18 22 23
68 68 67 66 66 65 64 63 62 61 59 59 57 55 54 52 51 49 43 45 43 42 42 41 40 35 33 34 32 32 27 21 24 28 28 26 22 21 20 21 22 19 17 21 22
69 69 66 66 67 67 66 64 65 64 62 61 60 60 58 57 55 52 49 50 48 47 46 44 43 40 38 38 37 37 32 29 27 33 32 32 27 24 23 24 26 21 17 18 21
73 70 68 68 68 68 68 67 65 66 64 64 63 62 61 60 58 57 55 53 52 50 49 47 46 47 45 44 42 43 38 35 30 37 36 36 34 31 27 24 28 26 23 24 24
76 71 70 69 72 71 71 69 68 67 67 65 64 64 65 63 61 61 56 55 55 53 53 53 52 51 50 48 49 49 44 42 38 39 41 40 37 36 30 29 30 31 28 24 25
84 85 78 74 72 73 75 73 71 70 70 70 69 68 67 65 63 65 60 59 59 58 57 57 56 56 55 54 53 53 51 48 45 44 45 45 43 42 29 33 35 32 30 30 31
79 77 83 78 78 71 72 73 73 73 77 74 72 72 71 67 65 65 64 61 61 60 60 59 59 58 57 56 56 56 56 55 52 50 49 48 49 41 36 38 37 39 37 34 31
79 77 77 78 77 79 70 71 76 76 76 78 75 73 72 69 69 68 67 66 64 63 62 62 62 61 60 59 58 58 59 59 58 56 50 51 52 43 43 43 40 39 42 42 37
83 81 80 79 78 77 77 72 74 77 77 74 75 73 73 71 70 71 70 69 68 66 64 64 64 63 62 62 63 63 63 62 60 57 57 57 55 50 48 50 47 45 44 46 44
84 84 83 80 77 76 77 79 76 76 78 77 76 76 77 72 71 71 69 66 66 65 64 65 64 64 64 66 66 64 63 63 64 63 63 63 60 59 57 56 52 49 48 46 49
78 78 81 82 80 80 79 78 74 79 83 80 77 75 73 72 68 68 69 67 68 67 67 65 67 65 65 65 64 66 66 66 66 68 67 68 65 64 63 59 57 53 52 52 50
83 77 75 75 80 81 80 80 78 76 76 79 79 78 76 74 71 70 71 71 70 69 69 69 70 67 65 66 66 67 68 67 68 70 72 71 69 65 66 64 62 61 57 55 53
89 82 77 74 72 77 80 77 77 76 72 73 72 74 75 74 72 70 70 70 70 68 67 68 66 63 64 63 65 67 68 69 71 70 72 75 76 71 67 70 68 64 63 59 56
91 86 81 76 78 76 74 75 75 73 71 78 76 72 74 77 75 69 69 70 71 68 68 69 68 68 66 67 67 69 65 66 68 69 74 74 81 75 72 72 71 66 62 54 51
92 86 85 79 79 76 67 70 68 66 67 76 77 75 67 68 67 67 69 70 70 68 69 69 67 68 66 65 61 64 61 62 65 66 67 73 77 83 71 71 67 62 58 53 48
83 80 79 79 78 72 67 65 62 62 67 68 72 74 72 73 72 66 62 62 64 65 67 69 70 67 69 60 57 57 59 59 60 60 61 74 66 74 74 67 63 58 55 53 53
60 77 79 77 80 75 72 70 67 71 66 55 67 67 67 66 69 69 62 60 59 58 64 63 66 68 65 66 63 59 54 54 61 65 67 59 62 64 67 55 56 52 53 51 53
58 65 64 57 80 76 75 76 68 67 68 63 43 49 54 58 60 59 59 59 60 59 53 50 48 45 43 45 48 47 48 53 57 58 59 62 68 69 58 52 48 52 55 59 58
50 60 65 67 56 76 77 75 80 70 69 60 56 57 45 44 49 57 57 53 53 55 55 52 52 44 37 38 40 41 46 42 52 53 55 56 58 57 52 51 46 53 59 66 72
54 63 64 57 60 61 72 72 75 73 65 64 53 47 60 52 49 50 52 48 49 52 47 47 45 43 37 37 39 43 42 45 47 49 52 55 53 46 34 38 46 57 58 59 58
51 67 65 60 60 63 67 71 62 70 68 67 61 46 46 59 55 44 42 46 43 38 43 44 43 41 42 41 37 38 41 45 48 53 55 56 56 37 32 38 40 46 57 59 57
44 50 57 60 60 66 67 66 66 66 68 67 66 56 28 36 50 52 42 38 40 38 39 37 40 39 40 39 37 39 40 42 46 45 47 49 51 41 46 40 42 31 43 50 48
44 43 47 56 57 56 58 61 63 66 67 60 67 64 67 39 35 43 48 32 26 39 35 34 37 38 39 43 43 38 35 37 40 42 43 47 40 32 44 47 49 44 39 44 55
51 41 49 56 52 53 53 57 62 51 58 64 61 62 61 62 56 41 41 26 26 30 32 32 36 37 38 34 35 37 37 35 37 42 38 43 37 29 39 45 50 52 54 55 51
42 43 53 58 52 36 39 46 54 59 56 56 61 59 57 54 61 58 55 43 31 31 32 34 33 33 36 37 39 39 38 40 42 38 41 34 34 22 37 39 44 50 53 56 59
39 42 48 53 52 47 33 44 48 50 56 55 55 57 57 56 43 57 56 45 32 36 31 25 23 24 29 34 37 37 38 41 43 43 42 40 31 35 42 42 44 49 52 54 56
33 35 37 41 41 59 52 36 35 41 46 54 49 53 56 57 45 41 47 44 42 35 29 22 28 28 29 32 35 36 36 39 40 39 37 38 33 40 45 46 45 45 49 51 55
Wind_Direction
235 233 231 232 230 230 230 230 231 231 232 233 233 234 236 237 239 240 243 246 249 252 254 256 258 259 262 266 267 268 267 272 269 269 276 277 280 287 289 284 281 287 297 306 306
233 234 233 234 235 232 231 232 232 232 233 234 234 234 235 236 238 240 240 243 245 247 250 252 257 258 261 265 266 268 270 269 269 273 278 283 283 285 286 287 286 293 298 297 302
235 233 232 233 235 234 233 233 234 234 233 234 235 235 236 237 238 240 239 243 244 247 250 253 258 262 264 265 268 268 269 267 272 274 275 280 283 283 285 283 286 291 291 293 296
235 234 234 235 235 235 234 233 234 235 235 234 236 237 237 237 239 239 241 242 244 247 251 255 256 259 260 262 266 266 267 267 266 273 275 276 280 283 283 280 284 287 286 289 290
233 235 236 236 237 237 237 235 234 235 236 236 236 237 237 238 239 242 241 242 244 246 248 250 251 253 257 259 262 265 265 266 267 269 273 274 275 274 279 282 282 285 290 291 292
235 233 232 233 237 237 237 237 235 236 236 236 237 237 237 238 239 242 240 241 243 243 246 248 251 252 252 254 257 261 263 262 262 262 266 270 272 272 284 284 283 286 289 288 289
240 239 235 235 233 236 238 237 238 238 239 239 236 237 237 238 239 241 243 242 244 245 247 248 249 251 252 253 255 258 262 264 262 261 262 265 269 276 278 278 279 284 287 288 288
231 232 237 240 235 233 239 238 239 241 238 237 238 236 236 238 240 240 242 243 243 244 246 248 250 251 252 255 256 257 259 261 264 265 264 266 271 271 272 272 274 276 280 284 284
230 230 229 230 234 237 234 239 238 238 238 237 237 237 237 238 239 241 241 244 245 244 245 247 250 252 254 256 257 258 259 262 264 267 268 266 269 269 268 268 269 271 273 277 282
231 231 230 230 230 230 233 236 235 236 237 237 238 238 238 239 239 241 243 245 247 249 247 248 249 252 254 254 257 260 263 263 264 264 265 266 269 268 266 269 271 272 274 276 277
230 230 231 230 229 229 229 229 229 233 237 238 241 243 242 242 242 243 244 245 246 247 248 249 250 251 254 256 257 259 259 260 262 264 265 265 264 267 269 269 270 271 271 271 272
233 229 228 229 230 230 230 230 232 238 240 239 240 240 239 238 239 239 240 242 244 246 248 250 251 253 254 255 257 259 261 262 263 264 264 264 264 264 266 267 268 268 268 268 268
231 231 227 227 229 230 230 232 233 232 233 234 236 236 236 237 238 239 241 244 246 245 247 250 252 254 255 256 258 259 260 261 263 264 263 265 263 262 261 265 267 267 268 268 268
230 229 228 226 225 228 229 230 232 233 235 233 231 232 235 235 236 238 239 241 242 245 247 247 249 249 251 253 255 257 260 260 262 262 263 263 265 262 262 263 265 266 267 272 268
223 225 226 224 228 227 227 228 229 231 233 233 231 233 235 237 239 239 241 241 242 244 245 250 252 254 253 256 256 258 257 258 259 259 259 261 265 263 260 262 265 267 267 266 263
219 222 223 220 223 224 223 224 225 225 229 232 234 233 233 236 236 236 237 240 243 244 245 247 248 248 252 252 251 252 253 252 253 255 254 260 262 263 262 265 263 266 265 260 255
214 220 220 221 220 220 218 218 220 220 225 232 232 234 233 233 237 238 238 240 241 243 247 249 251 252 253 253 253 252 252 253 254 253 258 260 259 265 264 264 262 257 253 243 239
208 206 206 215 218 216 218 217 218 222 222 218 219 226 230 227 229 233 236 236 237 238 239 241 243 252 255 258 258 254 253 254 260 262 263 258 256 262 261 261 257 250 245 247 245
202 203 216 220 211 217 215 217 219 217 222 223 220 218 214 218 227 231 231 233 235 241 242 244 246 246 253 252 245 245 247 257 258 257 261 258 260 262 263 261 254 250 252 255 260
189 192 194 198 197 208 216 216 221 219 219 220 217 218 224 220 220 221 225 228 232 232 235 240 243 240 243 246 248 247 249 248 250 256 259 262 260 265 261 257 250 246 245 250 255
201 196 207 204 199 204 212 214 214 219 220 220 219 226 226 218 220 225 233 230 231 232 234 236 240 240 241 245 252 254 251 253 255 256 261 263 261 263 257 251 248 247 246 251 255
190 198 195 197 200 206 208 209 206 215 218 219 216 211 202 223 226 222 220 236 242 233 234 239 240 238 243 244 246 248 250 251 254 260 264 265 262 260 253 256 245 254 254 250 251
182 198 197 197 202 211 214 211 211 213 215 214 217 218 222 205 206 213 220 210 233 229 234 239 238 241 241 245 246 250 251 254 257 258 260 264 270 260 247 249 255 261 254 245 239
188 189 192 192 200 212 219 215 207 206 212 216 215 217 218 224 223 207 199 228 239 225 224 235 235 234 241 250 253 251 251 253 257 258 262 261 267 251 256 253 253 254 252 249 250
184 197 196 192 194 193 207 212 214 207 210 211 214 213 215 223 228 227 231 236 222 216 219 225 229 234 238 246 250 252 254 255 257 261 263 266 264 257 262 256 253 252 254 254 255
184 192 197 203 210 206 204 214 207 213 212 211 214 213 210 211 216 232 237 213 230 225 216 232 240 243 246 248 252 253 253 253 255 258 262 266 265 266 270 266 258 254 254 255 255
193 198 204 205 213 215 212 212 217 213 215 218 212 219 222 224 234 232 234 237 241 233 224 248 254 251 251 248 248 247 251 255 259 261 266 266 265 263 266 271 271 267 264 264 264
Height
5719 5726 5731 5737 5743 5748 5754 5760 5766 5772 5778 5783 5789 5794 5800 5805 5809 5813 5819 5823 5826 5829 5832 5835 5838 5843 5846 5849 5852 5854 5860 5864 5864 5861 5862 5868 5870 5871 5872 5873 5872 5875 5877 5877 5878
5707 5714 5719 5725 5731 5737 5744 5749 5756 5762 5768 5774 5779 5785 5791 5796 5801 5806 5813 5815 5819 5822 5825 5829 5831 5837 5841 5842 5844 5848 5853 5859 5859 5857 5858 5860 5865 5866 5868 5869 5868 5871 5873 5874 5874
5694 5701 5707 5713 5719 5725 5732 5738 5745 5751 5757 5763 5769 5774 5780 5786 5793 5799 5803 5806 5811 5814 5818 5822 5825 5829 5832 5834 5838 5841 5847 5850 5854 5852 5854 5854 5859 5863 5864 5863 5864 5867 5869 5869 5870
5679 5685 5693 5701 5708 5714 5719 5726 5734 5740 5745 5752 5758 5764 5769 5776 5784 5788 5794 5799 5802 5807 5811 5815 5818 5820 5824 5826 5830 5832 5838 5842 5848 5845 5848 5850 5853 5856 5859 5861 5860 5862 5864 5865 5865
5663 5670 5679 5686 5695 5702 5708 5713 5721 5729 5734 5740 5747 5752 5758 5767 5775 5777 5786 5789 5793 5798 5802 5805 5808 5812 5815 5820 5821 5822 5830 5834 5840 5841 5841 5843 5846 5847 5853 5855 5854 5856 5858 5860 5861
5646 5655 5664 5673 5681 5688 5695 5701 5708 5715 5722 5728 5733 5740 5749 5758 5764 5764 5773 5778 5782 5787 5791 5795 5799 5803 5807 5811 5815 5817 5820 5825 5830 5834 5834 5835 5838 5839 5850 5848 5849 5851 5854 5855 5856
5628 5637 5648 5657 5666 5674 5682 5687 5695 5701 5708 5715 5721 5728 5738 5748 5751 5756 5761 5768 5772 5776 5780 5786 5789 5792 5797 5802 5805 5809 5811 5814 5819 5824 5826 5828 5830 5838 5842 5840 5843 5843 5845 5848 5851
5613 5623 5632 5641 5649 5659 5668 5674 5679 5686 5692 5699 5707 5717 5727 5735 5738 5744 5748 5753 5759 5764 5769 5773 5778 5782 5787 5791 5794 5799 5802 5803 5808 5811 5819 5820 5823 5833 5832 5833 5836 5838 5837 5838 5842
5597 5607 5617 5626 5635 5643 5651 5660 5664 5669 5675 5684 5697 5706 5715 5722 5727 5731 5737 5740 5743 5751 5757 5761 5766 5773 5778 5781 5783 5787 5791 5794 5799 5803 5803 5807 5814 5821 5822 5822 5827 5830 5832 5832 5834
5577 5588 5600 5610 5619 5628 5637 5641 5647 5650 5658 5671 5684 5695 5702 5709 5714 5717 5724 5730 5733 5738 5747 5752 5757 5763 5767 5767 5773 5777 5783 5786 5787 5790 5790 5793 5803 5805 5810 5813 5819 5822 5825 5827 5826
5559 5571 5582 5593 5604 5612 5618 5621 5628 5632 5647 5662 5676 5685 5692 5696 5704 5708 5714 5717 5722 5726 5732 5737 5744 5754 5757 5758 5763 5765 5769 5775 5775 5775 5777 5780 5791 5797 5799 5804 5807 5813 5814 5815 5817
5540 5554 5567 5577 5587 5594 5598 5608 5619 5633 5640 5648 5657 5665 5673 5679 5687 5693 5698 5701 5709 5715 5718 5724 5733 5741 5744 5747 5750 5754 5757 5766 5762 5761 5763 5765 5777 5787 5787 5790 5795 5799 5802 5804 5805
5520 5536 5551 5563 5572 5572 5587 5604 5609 5620 5623 5631 5639 5647 5656 5667 5676 5682 5688 5692 5697 5702 5708 5712 5724 5727 5731 5735 5738 5742 5747 5751 5747 5749 5751 5748 5757 5772 5780 5778 5782 5788 5790 5793 5793
5501 5518 5533 5546 5547 5559 5578 5588 5596 5606 5607 5611 5619 5632 5638 5651 5662 5669 5675 5680 5682 5691 5696 5699 5708 5712 5713 5721 5724 5727 5737 5736 5735 5733 5736 5735 5734 5756 5765 5767 5771 5779 5780 5782 5783
5482 5498 5513 5524 5535 5551 5576 5576 5586 5592 5583 5594 5607 5618 5628 5640 5656 5660 5662 5663 5671 5679 5682 5695 5699 5701 5705 5718 5710 5719 5721 5721 5721 5720 5720 5725 5718 5737 5748 5756 5764 5765 5767 5769 5769
5466 5482 5495 5506 5521 5545 5559 5566 5573 5572 5564 5579 5594 5606 5616 5630 5638 5641 5646 5651 5658 5664 5669 5680 5683 5685 5695 5698 5698 5705 5706 5706 5707 5706 5703 5719 5710 5717 5737 5748 5755 5755 5754 5757 5755
5456 5469 5479 5492 5511 5529 5541 5547 5548 5548 5556 5568 5583 5597 5609 5617 5625 5630 5638 5642 5649 5654 5660 5670 5672 5678 5684 5684 5685 5691 5696 5694 5693 5693 5695 5706 5700 5704 5727 5735 5738 5744 5743 5740 5736
5443 5455 5467 5482 5498 5514 5524 5528 5526 5537 5549 5565 5579 5589 5595 5606 5608 5620 5626 5632 5640 5643 5652 5655 5662 5667 5676 5675 5680 5682 5687 5683 5680 5683 5689 5690 5684 5696 5712 5723 5729 5731 5726 5721 5722
5433 5445 5458 5470 5485 5497 5506 5505 5514 5531 5545 5560 5572 5577 5584 5592 5603 5608 5615 5625 5633 5638 5644 5648 5651 5660 5665 5665 5669 5673 5671 5681 5673 5675 5671 5674 5678 5687 5703 5711 5720 5713 5711 5711 5711
5423 5438 5450 5463 5478 5486 5490 5497 5508 5523 5539 5550 5560 5567 5573 5586 5592 5598 5606 5615 5622 5627 5635 5638 5643 5650 5654 5654 5659 5660 5666 5665 5664 5660 5660 5663 5670 5678 5695 5696 5695 5692 5696 5697 5699
5418 5429 5443 5457 5470 5474 5476 5487 5501 5516 5530 5542 5550 5560 5567 5575 5588 5595 5602 5610 5617 5626 5626 5629 5634 5641 5642 5648 5653 5653 5654 5654 5654 5652 5652 5655 5658 5682 5685 5682 5680 5680 5679 5682 5683
5414 5425 5438 5449 5459 5465 5470 5480 5497 5506 5520 5530 5543 5554 5563 5573 5579 5585 5595 5607 5611 5617 5618 5623 5624 5629 5634 5638 5640 5641 5643 5644 5640 5646 5645 5646 5647 5671 5671 5669 5667 5668 5669 5670 5669
5414 5423 5435 5445 5451 5458 5467 5477 5487 5498 5511 5521 5533 5545 5558 5565 5569 5578 5589 5596 5600 5606 5611 5615 5616 5619 5624 5626 5628 5633 5638 5637 5635 5634 5637 5635 5646 5658 5656 5656 5655 5655 5657 5653 5646
5411 5420 5429 5437 5449 5454 5465 5472 5481 5491 5503 5515 5527 5539 5549 5553 5565 5573 5578 5586 5592 5596 5601 5603 5606 5609 5614 5620 5622 5623 5626 5627 5627 5625 5631 5628 5635 5645 5642 5640 5639 5638 5635 5637 5638
5410 5418 5429 5434 5442 5452 5457 5468 5478 5485 5496 5507 5517 5529 5542 5550 5557 5561 5569 5580 5586 5589 5592 5595 5599 5602 5606 5609 5611 5614 5616 5616 5616 5620 5616 5626 5626 5636 5625 5624 5623 5625 5626 5627 5628
5411 5420 5429 5440 5444 5450 5454 5462 5469 5479 5491 5501 5513 5528 5534 5543 5552 5564 5568 5576 5580 5584 5586 5590 5593 5596 5599 5602 5602 5604 5606 5605 5605 5607 5609 5612 5620 5616 5609 5612 5613 5613 5613 5612 5613
5415 5422 5431 5437 5442 5446 5455 5463 5471 5477 5485 5496 5515 5520 5528 5543 5551 5557 5561 5567 5575 5579 5581 5583 5586 5590 5592 5594 5593 5594 5595 5596 5598 5600 5603 5604 5609 5604 5600 5600 5601 5601 5600 5599 5599